Regional Weather Roundup
Issued by NWS

Home | Current Version | Previous Version | Graphics & Text | Print | Product List | Glossary On
Versions: 1 2 3 4 5 6 7 8 9 10 11 12 13 14 15 16 17 18 19 20 21 22 23 24 25 26 27 28 29 30 31 32 33 34 35 36 37 38 39 40 41 42 43 44 45 46 47 48 49 50
538
ASUS43 KFSD 232302
RWRSD

WEATHER ROUNDUP FOR SOUTH DAKOTA
NATIONAL WEATHER SERVICE SIOUX FALLS SD
500 PM CST FRI FEB 23 2018

NOTE: "FAIR" INDICATES FEW OR NO CLOUDS BELOW 12,000 FEET WITH NO
SIGNIFICANT WEATHER AND/OR OBSTRUCTIONS TO VISIBILITY.


SDZ001>005-009-010-012>017-240000-
NORTHWEST AND NORTH CENTRAL SOUTH DAKOTA

CITY           SKY/WX    TMP DP  RH WIND       PRES   REMARKS
BUFFALO          N/A     10   2  69 SE6       30.01F WCI   0
FAITH            N/A      9   3  77 S6        30.13F WCI  -1
MOBRIDGE       SUNNY     14   5  67 S5        30.18F WCI   6
$$

SDZ012>016-024>037-041>051-057-063-072>074-240000-
SOUTHWEST AND SOUTH CENTRAL SOUTH DAKOTA

CITY           SKY/WX    TMP DP  RH WIND       PRES   REMARKS
RAPID CTY ARPT SUNNY     17   7  64 SE14      30.08F WCI   3
PIERRE         SUNNY     12   5  73 SW10      30.25R WCI  -1
CUSTER         SUNNY     24   1  36 VRB7      29.95S WCI  16
ELLSWORTH AFB  SUNNY     19   5  53 S12       30.05F WCI   7
PHILIP         SUNNY     13   6  74 SW3       30.20S
PINE RIDGE     SUNNY     24  10  55 CALM      30.10F
SPEARFISH        N/A     18   5  57 CALM      30.00F
WINNER         FAIR      20   8  60 CALM      30.24S
$$

SDZ004>011-016>023-039-040-240000-
NORTHEAST SOUTH DAKOTA

CITY           SKY/WX    TMP DP  RH WIND       PRES   REMARKS
ABERDEEN       SUNNY     17   8  67 S6        30.26S WCI   9
WATERTOWN      SUNNY     16  12  84 W7        30.22R WCI   6
BROOKINGS      CLOUDY    20  16  84 W9        30.26R WCI   9
SISSETON         N/A     16   7  67 NW8       30.25S WCI   5
$$

SDZ017-020-022-023-036>040-048>070-240000-
SOUTHEAST SOUTH DAKOTA

CITY           SKY/WX    TMP DP  RH WIND       PRES   REMARKS
SIOUX FALLS    CLOUDY    20  16  84 SW6       30.30R WCI  12
HURON          SUNNY     17  10  74 SW6       30.29R WCI   9
CHAMBERLAIN    SUNNY     17  10  75 CALM      30.27S
MITCHELL       SUNNY     18  11  74 W8        30.31R WCI   8
YANKTON        SUNNY     22  15  75 NW6       30.31S WCI  14
$$

ABBREVIATIONS USED IN REMARKS
   TC - TEMPERATURE IN CELSIUS
  WCI - WIND CHILL INDEX
   HX - HEAT INDEX
  VSB - VISIBILITY





USA.gov is the U.S. government's official web portal to all federal, state and local government web resources and services.